User: anonymous   Login
Location: Charbonni�res
(45.9952°N, 2.9982°E)
Time: 16:52:19
(UTC+00:00)
Language:

Cosmos 1680 Rocket - Orbit

View from above orbital plane
View from above orbital plane
View from above satellite
View from above satellite

Ground track
Ground track

The orbit data is extracted from the following two-line orbital elements,

1 16012U 85079B   21058.76999564  .00000047  00000-0  25059-4 0  9996
2 16012  74.0604 176.0235 0013791 102.9875 257.2818 14.36361847857646
Epoch (UTC): 27 February 2021 18:28:47
Eccentricity: 0.0013791
inclination: 74.0604°
perigee height: 760 km
apogee height: 780 km
right ascension of ascending node: 176.0235°
argument of perigee: 102.9875°
revolutions per day: 14.36361847
mean anomaly at epoch: 257.2818°
orbit number at epoch: 85764

The dashed part of the orbit path shows where the satellite is in the earth's shadow,  

DLR